Regional Weather Roundup
Issued by NWS

Home | Current Version | Previous Version | Text Only | Print | Product List | Glossary Off
Versions: 1 2 3 4 5 6 7 8 9 10 11 12 13 14 15 16 17 18 19 20 21 22 23 24 25 26 27 28 29 30 31 32 33 34 35 36 37 38 39 40 41 42 43 44 45 46 47 48 49 50

000
ASUS45 KTFX 280010
RWRMT
MONTANA REGIONAL WEATHER ROUNDUP
NATIONAL WEATHER SERVICE GREAT FALLS MT
600 PM MDT THU JUL 27 2017

NOTE: "FAIR" INDICATES FEW OR NO CLOUDS BELOW 12000 FEET WITH NO
SIGNIFICANT WEATHER AND/OR OBSTRUCTIONS TO VISIBILITY.

MTZ001>007-043-280100-
WEST OF THE DIVIDE

CITY           SKY/WX    TMP DP  RH WIND       PRES   REMARKS
KALISPELL      MOSUNNY   91  45  20 S12       29.93F
MISSOULA       LGT RAIN  85  52  32 NW6       29.99S
BUTTE          CLOUDY    80  40  23 S13G21    30.15F
MULLAN PASS    SUNNY     72  41  32 VRB6      30.20F
ANACONDA         N/A     81  39  22 W5        30.10S
DEER LODGE       N/A     84  45  24 S5        30.09F
EUREKA           N/A     91  43  18 MISG      29.91F
HAMILTON         N/A     82  52  34 N6        30.01S
LIBBY            N/A     90  43  19 CALM      29.91F
PLAINS           N/A     90  50  25 W13       29.95F
$$

MTZ008-052>055-280100-
SOUTHWEST MONTANA

CITY           SKY/WX    TMP DP  RH WIND       PRES   REMARKS
BOZEMAN        PTSUNNY   76  52  43 S16G24    30.08R
DILLON         CLOUDY    67  50  54 SW18      30.17R
W YELLOWSTONE  LGT RAIN  57  52  82 CALM      30.30S
ENNIS          MOSUNNY   77  48  36 S15       30.21S
THREE FORKS      N/A     85  48  27 SE12      30.04S
TWIN BRIDGES     N/A     74  49  41 S16       30.12R
$$

MTZ009-010-012-014-046-048-049-054-280100-
EAST SLOPES AND CENTRAL MONTANA

CITY           SKY/WX    TMP DP  RH WIND       PRES   REMARKS
CUT BANK       SUNNY     90  35  14 NW12      29.96F
GREAT FALLS    SUNNY     89  36  15 SW6       29.96F
HELENA         MOSUNNY   90  42  18 N7        29.98S
CHOTEAU          N/A     90  36  14 VRB6      30.00S
CONRAD           N/A     91  43  18 W6        30.00F
$$

MTZ011-013-016-021-045-047-050-051-280100-
NORTH CENTRAL MONTANA

CITY           SKY/WX    TMP DP  RH WIND       PRES   REMARKS
HAVRE          CLOUDY    92  36  14 W8        29.89S
LEWISTOWN      CLOUDY    86  44  23 NE3       30.01F
N BAR RANCH      N/A     82  46  28 CALM      30.06F
CHINOOK          N/A     95  41  15 W6        29.87F HX  91
$$

MTZ017>020-022>027-061-062-280100-
NORTHEAST MONTANA

CITY           SKY/WX    TMP DP  RH WIND       PRES   REMARKS
GLASGOW        PTSUNNY   87  56  34 SE23      29.93R
JORDAN           N/A     84  53  34 SE24G33   29.95R
SIDNEY         CLOUDY    73  65  75 S7        30.02F
WOLF POINT     MOSUNNY   84  57  39 SE10G20   29.98R
MALTA          SUNNY     91  50  24 SE8       29.87S
PLENTYWOOD       N/A     75  57  53 SE12      30.02F
POPLAR           N/A     73  61  64 E23G30    30.00S
$$

MTZ028>42-056>058-280100-
SOUTHCENTRAL AND SOUTHEAST MONTANA

CITY           SKY/WX    TMP DP  RH WIND       PRES   REMARKS
BAKER          PTSUNNY   74  50  42 SE18G31   30.07S
BILLINGS       MOSUNNY   90  46  21 N15       29.96F
LIVINGSTON     MOSUNNY   77  46  33 SW31G48   30.05S
MILES CITY     MOSUNNY   85  52  32 E18G25    29.97R
BIG TIMBER     MOSUNNY   79  50  36 VRB6G14   30.07R
EKALAKA          N/A     71  53  52 SE22      30.01F
FORSYTH          N/A     86  61  42 NE21G28   29.91S
LAUREL           N/A     90  46  21 NW7       29.97R
$$

REGIONAL REPORTS...DAKOTAS

CITY           SKY/WX    TMP DP  RH WIND       PRES   REMARKS
WILLISTON      CLOUDY    78  62  57 S6        30.03R
MINOT          MOSUNNY   83  57  41 SE12      30.03F
DICKINSON      LGT RAIN  70  64  81 CALM      30.03F
BEACH            N/A     68  66  94 S9        30.08F
CROSBY           N/A     77  61  57 SE6       30.03S
TIOGA            N/A     77  61  57 S12G17    30.04F
WATFORD CITY     N/A     77  59  53 S9        30.02R
BISMARCK       CLOUDY    83  60  45 E10       30.03F
GRAND FORKS    MOSUNNY   83  59  44 S6        30.05F
FARGO          MOSUNNY   83  56  39 NE8       30.05F
BUFFALO SD       N/A     74  52  46 SE32G44   29.97S
RAPID CITY     CLOUDY    78  47  33 SE15      30.06S
$$

REGIONAL REPORTS...WYOMING/IDAHO/WASHINGTON

CITY           SKY/WX    TMP DP  RH WIND       PRES   REMARKS
GILLETTE       SUNNY     82  57  42 E14G24    30.03R
SHERIDAN       SUNNY     90  52  27 N6        29.97F
BUFFALO WY     SUNNY     86  51  29 N10       30.06S
CODY           SUNNY     86  43  22 SW7G16    30.08F
YELLOWSTONE LA   N/A     66  44  45 VRB6      30.36R
IDAHO FALLS    LGT RAIN  67  56  67 N20G26    30.18R
BOISE          SUNNY     93  43  17 NW10G17   29.99F
SPOKANE        MOSUNNY   88  38  17 SW13      29.96F
$$

REGIONAL REPORTS...ALBERTA

CITY           SKY/WX    TMP DP  RH WIND       PRES   REMARKS
EDMONTON       SUNNY     79  66  65 N5        29.81F
CALGARY        PTSUNNY   90  41  18 VRB13     29.83F
LETHBRIDGE     MOSUNNY   91  45  19 W13G20    29.88S
MEDICINE HAT   PTSUNNY   95  46  18 S5        29.83F HX  91
WATERTON GATE    N/A     81  46  30 SW12G20     N/A
MILK RIVER       N/A     93  41  16 W12         N/A
ONEFOUR          N/A     91  39  16 S6          N/A
$$

REGIONAL REPORTS...SASKATCHEWAN

CITY           SKY/WX    TMP DP  RH WIND       PRES   REMARKS
SWIFT CURRENT  MOSUNNY   86  54  32 SE12      29.93F
REGINA         MOSUNNY   88  48  25 SE13      29.96F
SASKATOON      MOSUNNY   90  48  24 SE20G25   29.92F
ROCKGLEN         N/A     84  50  30 SE18G26     N/A
ASSINIBOIA       N/A     82  63  51 W6          N/A
$$



USA.gov is the U.S. government's official web portal to all federal, state and local government web resources and services.